GW4454 Weather Reports


Display with metric or nautical units.
time (UTC)temp
F
wind
direction
speed
MPH
gust
MPH
rain 1hr
in
rain 24hr
in
rain mn
in
humidity
%
barometer
mb
20260506210009 70 35 8.0 13.0 0.00 0.00 0.00 29 1019.6
20260506204506 70 352 4.0 10.0 0.00 0.00 0.00 29 1019.6
20260506203013 70 46 8.0 14.0 0.00 0.00 0.00 29 1019.8
20260506201519 69 57 6.0 16.0 0.00 0.00 0.00 30 1019.9
20260506200003 68 87 3.0 13.0 0.00 0.00 0.00 29 1020.1
20260506194504 67 69 2.0 12.0 0.00 0.00 0.00 30 1020.1
20260506193009 67 32 3.0 11.0 0.00 0.00 0.00 26 1020.1
20260506191514 67 303 2.0 10.0 0.00 0.00 0.00 30 1020.2
20260506190019 67 331 5.0 10.0 0.00 0.00 0.00 30 1020.2
20260506184504 66 329 5.0 12.0 0.00 0.00 0.00 33 1020.3
20260506183008 66 24 2.0 8.0 0.00 0.00 0.00 34 1020.3
20260506181513 65 97 2.0 9.0 0.00 0.00 0.00 35 1020.3
20260506180025 64 29 3.0 9.0 0.00 0.00 0.00 37 1020.3
20260506174522 64 28 5.0 9.0 0.00 0.00 0.00 36 1020.2
20260506173016 64 327 5.0 8.0 0.00 0.00 0.00 38 1020.2
20260506171514 63 88 2.0 5.0 0.00 0.00 0.00 39 1020.2
20260506170016 62 94 4.0 8.0 0.00 0.00 0.00 40 1019.9
20260506164520 61 46 2.0 9.0 0.00 0.00 0.00 43 1019.9
20260506163030 60 306 3.0 8.0 0.00 0.00 0.00 43 1019.7
20260506161508 61 352 3.0 5.0 0.00 0.00 0.00 42 1019.7
20260506160017 59 283 1.0 8.0 0.00 0.00 0.00 43 1019.6
20260506154520 57 237 3.0 8.0 0.00 0.00 0.00 43 1019.5
20260506153022 56 257 7.0 11.0 0.00 0.00 0.00 47 1019.5
20260506151529 55 273 6.0 8.0 0.00 0.00 0.00 48 1019.5
20260506150010 54 317 1.0 4.0 0.00 0.00 0.00 51 1019.6
20260506144519 53 331 2.0 5.0 0.00 0.00 0.00 53 1019.4
20260506143026 54 63 0.0 3.0 0.00 0.00 0.00 49 1019.1
20260506141530 53 104 1.0 2.0 0.00 0.00 0.00 49 1019.0
20260506140026 51 84 2.0 5.0 0.00 0.00 0.00 52 1018.6
20260506134513 50 119 4.0 7.0 0.00 0.00 0.00 53 1018.4
20260506133018 50 144 3.0 8.0 0.00 0.00 0.00 54 1018.3
20260506131530 48 216 4.0 6.0 0.00 0.00 0.00 55 1018.2
20260506130026 48 228 3.0 6.0 0.00 0.00 0.00 56 1018.2
20260506124515 47 253 1.0 4.0 0.00 0.00 0.00 56 1018.2
20260506123022 49 171 3.0 5.0 0.00 0.00 0.00 53 1017.9
20260506121508 50 174 1.0 5.0 0.00 0.00 0.00 52 1017.9
20260506120004 50 221 1.0 3.0 0.00 0.00 0.00 52 1017.6
20260506114504 50 171 3.0 9.0 0.00 0.00 0.00 54 1017.6
20260506113005 49 225 8.0 11.0 0.00 0.00 0.00 59 1017.6
20260506111503 48 242 9.0 12.0 0.00 0.00 0.00 60 1017.6
20260506110004 48 234 9.0 15.0 0.00 0.00 0.00 60 1017.6
20260506104506 48 247 12.0 15.0 0.00 0.00 0.00 59 1017.6
20260506103008 48 229 11.0 15.0 0.00 0.00 0.00 60 1017.4
20260506101506 47 246 9.0 16.0 0.00 0.00 0.00 62 1017.4
20260506100004 47 239 12.0 19.0 0.00 0.00 0.00 64 1017.5
20260506094514 46 252 11.0 15.0 0.00 0.00 0.00 64 1017.4
20260506093008 47 240 11.0 17.0 0.00 0.00 0.00 65 1017.4
20260506091508 46 264 13.0 18.0 0.00 0.00 0.00 68 1017.4
20260506090007 45 236 14.0 17.0 0.00 0.00 0.00 69 1017.5
20260506084505 46 242 14.0 19.0 0.00 0.00 0.00 70 1017.5
20260506083005 45 245 15.0 19.0 0.00 0.00 0.00 69 1017.8
20260506081509 45 257 11.0 15.0 0.00 0.00 0.00 67 1017.7
20260506073015 46 240 13.0 17.0 0.00 0.00 0.00 66 1017.6
20260506071508 46 265 12.0 15.0 0.00 0.00 0.00 65 1017.6
20260506061508 47 228 5.0 14.0 0.00 0.00 0.00 66 1017.1
20260506044533 48 234 6.0 11.0 0.00 0.00 0.00 67 1016.4
20260506043012 47 213 9.0 17.0 0.00 0.00 0.00 69 1016.2
20260506041512 47 219 11.0 19.0 0.00 0.00 0.00 72 1016.2
20260506040013 47 265 13.0 18.0 0.00 0.00 0.00 72 1016.0
20260506034525 47 229 11.0 16.0 0.00 0.00 0.00 72 1016.0
20260506033016 47 238 9.0 16.0 0.00 0.00 0.00 72 1016.2
20260506031516 47 239 9.0 14.0 0.00 0.00 0.00 71 1015.8
20260506030004 47 237 11.0 17.0 0.00 0.00 0.00 71 1015.6
20260506024509 48 268 13.0 18.0 0.00 0.00 0.00 70 1015.4
20260506023016 48 263 12.0 19.0 0.00 0.00 0.00 69 1015.2
20260506021516 49 262 12.0 17.0 0.00 0.00 0.00 68 1014.9
20260506020020 50 236 14.0 23.0 0.00 0.00 0.00 67 1014.9
20260506014507 50 240 13.0 18.0 0.00 0.00 0.00 66 1014.6
20260506013014 51 265 16.0 21.0 0.00 0.00 0.00 65 1014.6
20260506011520 51 254 13.0 18.0 0.00 0.00 0.00 63 1014.6
20260506010019 52 254 11.0 20.0 0.00 0.00 0.00 62 1014.6
20260506004532 52 240 15.0 21.0 0.00 0.00 0.00 62 1014.4
20260506003011 52 259 11.0 19.0 0.00 0.00 0.00 61 1014.2
20260506001513 52 246 13.0 20.0 0.00 0.00 0.00 62 1014.1
20260506000025 52 234 13.0 21.0 0.00 0.00 0.00 62 1014.0
20260505234533 52 225 13.0 21.0 0.00 0.00 0.00 63 1013.9
20260505233023 52 259 16.0 21.0 0.00 0.00 0.00 62 1014.0
20260505231516 54 238 15.0 23.0 0.00 0.00 0.00 58 1014.1
20260505230020 55 236 14.0 21.0 0.00 0.00 0.00 55 1014.1
20260505224524 54 283 17.0 25.0 0.00 0.00 0.00 55 1014.1
20260505223023 55 259 16.0 20.0 0.00 0.00 0.00 55 1014.1
20260505221524 55 273 14.0 25.0 0.00 0.00 0.00 55 1014.1
20260505220024 52 269 15.0 21.0 0.00 0.00 0.00 57 1014.2
20260505214523 53 273 14.0 23.0 0.00 0.00 0.00 57 1014.4
20260505213026 54 246 13.0 19.0 0.00 0.00 0.00 55 1014.4
20260505211524 54 227 11.0 18.0 0.00 0.00 0.00 54 1014.4